Погода в Развилке

Россия / Московская область     55°35′33″N   37°44′57″E
темп.,
°C
ветер,
м/с
пор.,
м/с
влажн.,
%
обл.,
%
осадки,
мм/ч
давл.,
гПа
погр.,
м
18 апреля, вс
вс1800:00+8всв6136232 0.0 1020502
03:00+6всв714685 0.0 1019429
06:00+5всв6127380 0.0 1020500
09:00+6в5872100 0.1 1020685
12:00+5в51090100 5.1 1022711
15:00+6в51188100 9.0 1022899
18:00+6всв51087100 0.1 1022670
21:00+7всв5118793 0.1 1022687
19 апреля, пн
пн1900:00+7всв51084100 0.0 1022501
03:00+7св61185100 0.1 1022612
06:00+5всв61189100 0.1 1023521
09:00+4всв61094100 1.2 1024787
12:00+6всв61177100 0.6 1024906
15:00+5всв71192100 2.1 1024883
18:00+3всв71397100 2.1 1024773
21:00+3всв71295100 2.4 1025802
20 апреля, вт
вт2000:00+2всв6128499 0.1 1024661
03:00+2всв61397100 0.4 1022573
06:00+2в61297100 1.8 1022660
09:00+3в61397100 2.0 1021606
12:00+5в71291100 0.1 1021709
15:00+7в71183100 0.1 1019959
18:00+5в71493100 0.6 1017959
21:00+5в91788100 2.3 10141033
21 апреля, ср
ср2100:00+4в112092100 4.2 10091059
03:00+3в101997100 11.1 10061029
06:00+5вюв91894100 1.2 1003915
09:00+6вюв101792100 1.6 1001968
12:00+8юв91690100 0.6 10001455
15:00+5ю81389100 1.5 10031085
18:00+5ююз91583100 0.1 10051329
21:00+4ююз91490100 0.2 10081157
22 апреля, чт
чт2200:00+4юз81287100 0.1 10111080
03:00+4юз61197100 0.3 1014883
06:00+5юз51190100 0.2 1016758
09:00+7юз5778100 0.2 1018558
12:00+11ююз575993 0.1 10191283
15:00+13юз464993 0.3 10201923
18:00+12ююз35635 0.1 1021244
21:00+8ю22763 0.2 102213